CW0315 Weather Reports


time (UTC)temp
C
wind
direction
speed
KPH
gust
KPH
rain 1hr
cm
rain 24hr
cm
rain mn
cm
humidity
%
barometer
mb
20260906132313 20 270 3.2 14.5 0.00 0.03 0.00 49 1025.3
20260906131313 20 202 6.4 11.3 0.00 0.03 0.00 49 1025.7
20260906130313 19 202 9.7 12.9 0.00 0.03 0.00 49 1025.7
20260906124312 20 202 6.4 14.5 0.00 0.03 0.00 50 1025.8
20260906123312 19 0 0.0 6.4 0.00 0.03 0.00 44 1025.7
20260906122312 19 0 0.0 12.9 0.00 0.03 0.00 49 1025.9
20260906120312 18 202 8.0 12.9 0.00 0.03 0.00 53 1025.9
20260906115312 19 202 14.5 19.3 0.00 0.03 0.00 54 1026.1
20260906114312 19 225 3.2 16.1 0.00 0.03 0.00 49 1026.4
20260906112312 18 202 4.8 14.5 0.00 0.03 0.00 56 1026.2
20260906110311 18 180 11.3 16.1 0.00 0.03 0.00 55 1026.4
20260906105311 18 202 1.6 12.9 0.00 0.03 0.00 57 1026.6
20260906104311 18 180 1.6 12.9 0.00 0.03 0.00 55 1026.7
20260906102311 18 292 6.4 19.3 0.00 0.03 0.00 52 1026.8
20260906101311 19 180 1.6 14.5 0.00 0.03 0.00 49 1026.9
20260906095310 19 292 6.4 14.5 0.00 0.03 0.00 49 1026.9
20260906094310 18 292 6.4 16.1 0.00 0.03 0.00 53 1026.8
20260906093310 18 180 0.0 14.5 0.00 0.03 0.00 52 1026.7
20260906092310 18 337 3.2 16.1 0.00 0.03 0.00 54 1026.7
20260906091315 17 157 0.0 9.7 0.00 0.03 0.00 54 1026.6
20260906090314 17 337 8.0 14.5 0.00 0.03 0.00 56 1026.9
20260906085313 16 202 3.2 11.3 0.00 0.03 0.00 57 1026.9
20260906083313 16 202 8.0 12.9 0.00 0.03 0.00 65 1026.8
20260906082313 16 202 4.8 12.9 0.00 0.03 0.00 65 1026.6
20260906080313 16 202 8.0 11.3 0.00 0.03 0.00 65 1026.4
20260906075313 15 202 4.8 8.0 0.00 0.03 0.00 65 1026.3
20260906074313 15 0 0.0 0.0 0.00 0.03 0.00 64 1026.1
20260906071312 14 202 6.4 8.0 0.00 0.03 0.00 68 1025.6
20260906070312 13 0 0.0 4.8 0.00 0.03 0.00 69 1025.5
20260906065312 13 180 1.6 6.4 0.00 0.03 0.00 70 1025.5
20260906064312 12 202 3.2 8.0 0.00 0.03 0.00 71 1025.2
20260906063312 12 0 0.0 0.0 0.00 0.03 0.00 75 1024.9
20260906062311 11 0 0.0 0.0 0.00 0.03 0.00 80 1024.7
20260906061311 10 0 0.0 0.0 0.00 0.03 0.00 83 1024.6
20260906060311 9 0 0.0 0.0 0.00 0.05 0.00 85 1024.6
20260906054311 8 0 0.0 0.0 0.00 0.05 0.00 85 1024.6
20260906053311 8 0 0.0 0.0 0.00 0.05 0.00 86 1024.5
20260906052311 8 0 0.0 0.0 0.00 0.05 0.00 85 1024.5
20260906051311 8 0 0.0 0.0 0.00 0.05 0.00 85 1024.5
20260906050310 8 0 0.0 0.0 0.00 0.15 0.00 85 1024.3
20260906045311 8 0 0.0 0.0 0.00 0.15 0.00 84 1024.5
20260906044310 8 360 0.0 6.4 0.00 0.15 0.00 84 1024.3
20260906043310 8 22 4.8 6.4 0.00 0.15 0.00 84 1024.2
20260906042310 8 360 6.4 9.7 0.00 0.15 0.00 84 1024.2
20260906040310 8 360 6.4 9.7 0.00 0.25 0.00 84 1024.2
20260906035309 8 22 6.4 8.0 0.00 0.25 0.00 83 1024.2
20260906034309 8 22 6.4 8.0 0.00 0.25 0.00 83 1024.3
20260906033309 8 22 6.4 8.0 0.00 0.25 0.00 83 1024.2
20260906032309 8 22 4.8 8.0 0.00 0.25 0.00 82 1024.2
20260906031309 8 22 6.4 8.0 0.00 0.25 0.00 82 1024.0
20260906030314 8 22 4.8 6.4 0.00 0.25 0.00 81 1024.0
20260906025314 8 22 4.8 8.0 0.00 0.25 0.00 81 1024.0
20260906024314 8 22 4.8 6.4 0.00 0.25 0.00 80 1024.3
20260906023314 8 22 4.8 6.4 0.00 0.25 0.00 79 1024.0
20260906022313 8 22 4.8 6.4 0.00 0.25 0.00 79 1024.0
20260906021313 9 22 3.2 6.4 0.00 0.25 0.00 79 1024.0
20260906020313 9 0 0.0 0.0 0.00 0.25 0.00 79 1023.9
20260906015313 9 0 0.0 0.0 0.00 0.25 0.00 78 1024.1
20260906014313 10 0 0.0 0.0 0.00 0.25 0.00 77 1024.0
20260906013313 10 0 0.0 0.0 0.00 0.25 0.00 75 1023.9
20260906010312 11 0 0.0 0.0 0.00 0.25 0.00 71 1023.9
20260906004313 12 0 0.0 0.0 0.00 0.25 0.00 68 1023.8
20260906003312 12 0 0.0 0.0 0.00 0.25 0.00 63 1023.6
20260906002312 12 0 0.0 11.3 0.00 0.25 0.00 62 1023.6
20260906001312 12 0 0.0 4.8 0.00 0.25 0.00 62 1023.3
20260905235311 13 0 0.0 0.0 0.00 0.25 0.00 63 1023.2
20260905234311 13 0 0.0 11.3 0.00 0.25 0.00 63 1023.0
20260905233311 13 337 9.7 16.1 0.00 0.25 0.00 64 1022.9
20260905232311 13 22 9.7 14.5 0.00 0.25 0.00 64 1022.9
20260905231311 13 22 11.3 17.7 0.00 0.25 0.00 65 1022.9
20260905230311 13 22 11.3 16.1 0.00 0.25 0.00 65 1023.0
20260905225311 13 22 9.7 20.9 0.00 0.25 0.00 65 1023.0
20260905224310 13 45 11.3 16.1 0.00 0.25 0.00 67 1022.7
20260905222310 13 22 9.7 17.7 0.00 0.25 0.00 68 1022.3
20260905221310 13 22 8.0 16.1 0.00 0.25 0.00 69 1022.2
20260905220310 12 360 8.0 11.3 0.00 0.25 0.25 71 1022.0
20260905215310 13 22 6.4 8.0 0.00 0.25 0.25 71 1022.2
20260905213309 13 360 4.8 9.7 0.00 0.25 0.25 70 1021.9
20260905212309 13 360 6.4 14.5 0.00 0.25 0.25 71 1021.9
20260905211309 12 22 6.4 9.7 0.00 0.25 0.25 72 1021.6
20260905210309 12 360 4.8 8.0 0.00 0.25 0.25 73 1021.4
20260905205309 13 22 4.8 6.4 0.00 0.25 0.25 72 1021.4
20260905204314 12 360 6.4 9.7 0.00 0.25 0.25 72 1021.4
20260905203315 12 22 3.2 8.0 0.00 0.25 0.25 74 1021.4
20260905202314 12 22 8.0 14.5 0.00 0.25 0.25 75 1021.4
20260905201313 12 22 6.4 11.3 0.00 0.25 0.25 75 1021.3
20260905200313 12 22 6.4 9.7 0.00 0.25 0.25 75 1021.2
20260905195313 13 22 4.8 9.7 0.00 0.25 0.25 75 1021.4
20260905194313 13 360 6.4 11.3 0.00 0.25 0.25 74 1021.3
20260905193313 13 360 4.8 8.0 0.00 0.25 0.25 76 1021.2
20260905192313 13 337 3.2 8.0 0.00 0.25 0.25 77 1021.2
20260905191313 13 360 4.8 9.7 0.00 0.25 0.25 77 1020.9
20260905190312 13 22 1.6 8.0 0.00 0.25 0.25 77 1020.8
20260905185312 14 22 6.4 8.0 0.00 0.25 0.25 76 1021.0
20260905184314 14 22 6.4 8.0 0.00 0.25 0.25 75 1021.0
20260905183312 14 360 3.2 9.7 0.00 0.25 0.25 74 1020.7
20260905182312 15 22 4.8 9.7 0.00 0.25 0.25 72 1020.7
20260905181312 15 45 3.2 9.7 0.00 0.25 0.25 69 1020.6
20260905180312 16 0 0.0 0.0 0.00 0.25 0.25 68 1020.6
20260905174311 17 0 0.0 4.8 0.00 0.25 0.25 62 1020.6
20260905173311 17 270 4.8 12.9 0.00 0.25 0.25 61 1020.4
20260905172311 17 180 0.0 9.7 0.00 0.25 0.25 61 1020.6
20260905165311 18 180 4.8 12.9 0.00 0.25 0.25 61 1020.7
20260905164311 18 202 0.0 16.1 0.00 0.25 0.25 62 1020.8
20260905163311 18 180 8.0 17.7 0.00 0.25 0.25 62 1020.6
20260905162310 18 292 0.0 11.3 0.00 0.25 0.25 63 1020.6
20260905161310 18 247 4.8 20.9 0.00 0.25 0.25 63 1020.9
20260905160310 18 315 4.8 16.1 0.00 0.25 0.25 62 1020.5
20260905155310 18 180 1.6 24.1 0.00 0.25 0.25 62 1020.5
20260905154310 18 225 0.0 14.5 0.00 0.25 0.25 65 1020.5
20260905153310 18 247 1.6 16.1 0.00 0.25 0.25 63 1020.4
20260905152311 18 180 6.4 27.4 0.00 0.25 0.25 63 1020.6
20260905151310 18 180 4.8 14.5 0.00 0.25 0.25 66 1020.7
20260905145309 18 270 6.4 24.1 0.03 0.25 0.25 62 1020.4
20260905144309 18 180 6.4 24.1 0.03 0.25 0.25 62 1020.6
20260905143314 18 337 1.6 22.5 0.03 0.25 0.25 64 1020.6
20260905142314 18 180 3.2 11.3 0.03 0.25 0.25 65 1020.6
20260905141313 18 180 4.8 27.4 0.03 0.25 0.25 68 1020.8
20260905140313 17 202 4.8 17.7 0.00 0.23 0.23 69 1020.9
20260905135313 18 247 6.4 14.5 0.00 0.23 0.23 69 1020.9